Regional Weather Roundup
Issued by NWS

Home | Current Version | Previous Version | Text Only | Print | Product List | Glossary Off
Versions: 1 2 3 4 5 6 7 8 9 10 11 12 13 14 15 16 17 18 19 20 21 22 23 24 25 26 27

000
ASUS45 KBOI 291810
RWRID

IDAHO REGIONAL WEATHER ROUNDUP
NATIONAL WEATHER SERVICE BOISE ID
1200 PM MDT FRI APR 29 2016

NOTE: "FAIR" INDICATES FEW OR NO CLOUDS BELOW 12000 FEET
WITH NO SIGNIFICANT WEATHER AND/OR OBSTRUCTIONS TO VISIBILITY

IDZ012-014-291900-
SOUTHWEST IDAHO


CITY           SKY/WX    TMP DP  RH WIND       PRES   REMARKS
BOISE          CLOUDY    58  38  47 NW12G20   29.90S
CALDWELL       PTSUNNY   58  40  51 W14       29.92S
MOUNTAIN HOME  MOSUNNY   60  37  42 NW10      29.89S
$$

IDZ016-017-291900-
SOUTHCENTRAL IDAHO


CITY           SKY/WX    TMP DP  RH WIND       PRES   REMARKS
BURLEY         PTSUNNY   51  41  68 VRB7      29.88F
JEROME         MOSUNNY   53  41  63 W12       29.90S
TWIN FALLS     MOSUNNY   56  38  50 W15G23    29.89F
$$

IDZ019>023-291900-
SOUTHEAST IDAHO


CITY           SKY/WX    TMP DP  RH WIND       PRES   REMARKS
IDAHO FALLS    PTSUNNY   49  34  56 SW8       29.89F
POCATELLO      LGT RAIN  49  39  68 W10       29.90S
REXBURG        CLOUDY    48  31  51 VRB3      29.89S
$$

IDZ006-010-011-018-031-032-291900-
CENTRAL IDAHO MOUNTAINS


CITY           SKY/WX    TMP DP  RH WIND       PRES   REMARKS
MCCALL         LGT RAIN  40  35  83 W3        29.90R
HAILEY         CLOUDY    48  37  66 E7        29.89S
STANLEY          N/A     41  32  70 CALM      29.90R
SALMON         CLOUDY    43  34  70 CALM      29.90S
CHALLIS        CLOUDY    48  35  60 NE5       29.85F
$$

IDZ002-004-006-007-026-291900-
NORTHERN IDAHO


CITY           SKY/WX    TMP DP  RH WIND       PRES   REMARKS
LEWISTON       LGT RAIN  50  46  86 S6        29.97R
LOWELL           N/A     51  43  74 VRB3      29.95S
COEUR D`ALENE  CLOUDY    48  39  71 W7        29.93S
MULLAN PASS    CLOUDY    34  26  72 CALM      29.90R
$$




USA.gov is the U.S. government's official web portal to all federal, state and local government web resources and services.